Powrót do katalogu

CZ-4 DEB

AktywnyPO
NORAD 20888·DEBRIS·🇨🇳 China

Wystrzelony Sep 3, 1990 z Taiyuan Satellite Launch Center

Loading…

Następne Przeloty (najbliższe 24 godziny)

TLE

ŚwieżeSource: Space-Track

Epoka: Sep 14, 2026, 08:48 UTC

1 20888U 90081AY  26257.36698579  .00003065  00000-0  10137-2 0  9997
2 20888  99.1983 127.0196 0176060 340.5681  18.8844 14.30358832839965

Śledź CZ-4 DEB w czasie rzeczywistym z AllMySat

Download on the App Store